Location: Artiguedieu
(43.5000°N, 0.5454°E)
Time: 11:57:15
(UTC+00:00)

USA 305 - Pass Details

Date: 06 December 2020
Orbit: 563 x 580 km, 54.0° (Epoch: 25 January)

Event Time Altitude Azimuth Distance (km) Brightness Sun altitude
Exits shadow 05:53:57 24° 296° (WNW) 1,214 3.9 -14.4°
Maximum altitude 05:56:23 62° 222° (SW) 653 3.0 -14.0°
Drops below altitude 10° 06:00:39 10° 141° (SE) 1,888 6.5 -13.3°
Sets 06:02:54 0° 138° (SE) 2,783 7.5 -12.9°
